Time,TemperatureF,DewpointF,PressureIn,WindDirection,WindDirectionDegrees,WindSpeedMPH,WindSpeedGustMPH,Humidity,HourlyPrecipIn,Conditions,Clouds,dailyrainin,SolarRadiationWatts/m^2,SoftwareType,DateUTC
2013-03-03 00:02:00,36.0,25.0,-100.00,NW,323,4.0,11.0,64,0.00,,,0.00,0.000000,,2013-03-03 05:02:00,
2013-03-03 00:12:00,36.0,25.0,-100.00,NW,323,4.0,11.0,64,0.00,,,0.00,0.000000,,2013-03-03 05:12:00,
2013-03-03 00:22:00,36.0,25.0,-100.00,NW,323,4.0,11.0,64,0.00,,,0.00,0.000000,,2013-03-03 05:22:00,
2013-03-03 00:52:00,36.0,26.0,-100.00,NW,319,3.0,10.0,67,0.00,,,0.00,1.000000,,2013-03-03 05:52:00,
2013-03-03 01:02:00,36.0,26.0,-100.00,NW,319,3.0,10.0,67,0.00,,,0.00,1.000000,,2013-03-03 06:02:00,
2013-03-03 01:11:00,36.0,26.0,-100.00,NW,319,3.0,10.0,67,0.00,,,0.00,1.000000,,2013-03-03 06:11:00,
2013-03-03 01:22:00,36.0,26.0,-100.00,NW,319,3.0,10.0,67,0.00,,,0.00,1.000000,,2013-03-03 06:22:00,
2013-03-03 01:52:00,35.0,25.0,-100.00,NNW,339,6.0,11.0,66,0.00,,,0.00,1.000000,,2013-03-03 06:52:00,
2013-03-03 02:01:00,35.0,25.0,-100.00,NNW,339,6.0,11.0,66,0.00,,,0.00,1.000000,,2013-03-03 07:01:00,
2013-03-03 02:11:00,35.0,25.0,-100.00,NNW,339,6.0,11.0,66,0.00,,,0.00,1.000000,,2013-03-03 07:11:00,
2013-03-03 02:21:00,35.0,25.0,-100.00,NNW,339,6.0,11.0,66,0.00,,,0.00,1.000000,,2013-03-03 07:21:00,
2013-03-03 02:52:00,34.0,23.0,-100.00,NNW,344,5.0,13.0,65,0.00,,,0.00,0.000000,,2013-03-03 07:52:00,
2013-03-03 03:01:00,34.0,23.0,-100.00,NNW,344,5.0,13.0,65,0.00,,,0.00,0.000000,,2013-03-03 08:01:00,
2013-03-03 03:11:00,34.0,23.0,-100.00,NNW,344,5.0,13.0,65,0.00,,,0.00,0.000000,,2013-03-03 08:11:00,
2013-03-03 03:21:00,34.0,23.0,-100.00,NNW,344,5.0,13.0,65,0.00,,,0.00,0.000000,,2013-03-03 08:21:00,
2013-03-03 03:54:00,34.0,23.0,-100.00,WNW,284,3.0,9.0,65,0.00,,,0.00,1.000000,,2013-03-03 08:54:00,
2013-03-03 04:02:00,34.0,23.0,-100.00,WNW,284,3.0,9.0,65,0.00,,,0.00,1.000000,,2013-03-03 09:02:00,
2013-03-03 04:12:00,34.0,23.0,-100.00,WNW,284,3.0,9.0,65,0.00,,,0.00,1.000000,,2013-03-03 09:12:00,
2013-03-03 04:21:00,34.0,23.0,-100.00,WNW,284,3.0,9.0,65,0.00,,,0.00,1.000000,,2013-03-03 09:21:00,
2013-03-03 04:52:00,33.0,23.0,-100.00,NW,311,2.0,7.0,66,0.00,,,0.00,1.000000,,2013-03-03 09:52:00,
2013-03-03 05:01:00,33.0,23.0,-100.00,NW,311,2.0,7.0,66,0.00,,,0.00,1.000000,,2013-03-03 10:01:00,
2013-03-03 05:12:00,33.0,23.0,-100.00,NW,311,2.0,7.0,66,0.00,,,0.00,1.000000,,2013-03-03 10:12:00,
2013-03-03 05:21:00,33.0,23.0,-100.00,NW,311,2.0,7.0,66,0.00,,,0.00,1.000000,,2013-03-03 10:21:00,
2013-03-03 05:52:00,33.0,23.0,-100.00,NW,318,4.0,8.0,65,0.00,,,0.00,1.000000,,2013-03-03 10:52:00,
2013-03-03 06:02:00,33.0,23.0,-100.00,NW,318,4.0,8.0,65,0.00,,,0.00,1.000000,,2013-03-03 11:02:00,
2013-03-03 06:11:00,33.0,23.0,-100.00,NW,318,4.0,8.0,65,0.00,,,0.00,1.000000,,2013-03-03 11:11:00,
2013-03-03 06:22:00,33.0,23.0,-100.00,NW,318,4.0,8.0,65,0.00,,,0.00,1.000000,,2013-03-03 11:22:00,
2013-03-03 06:53:00,33.0,22.0,-100.00,NW,321,5.0,8.0,64,0.00,,,0.00,1.000000,,2013-03-03 11:53:00,
2013-03-03 07:02:00,33.0,22.0,-100.00,NW,321,5.0,8.0,64,0.00,,,0.00,1.000000,,2013-03-03 12:02:00,
2013-03-03 07:11:00,33.0,22.0,-100.00,NW,321,5.0,8.0,64,0.00,,,0.00,1.000000,,2013-03-03 12:11:00,
2013-03-03 07:22:00,33.0,22.0,-100.00,NW,321,5.0,8.0,64,0.00,,,0.00,1.000000,,2013-03-03 12:22:00,
2013-03-03 07:53:00,33.0,22.0,-100.00,NW,320,6.0,12.0,64,0.00,,,0.00,24.000000,,2013-03-03 12:53:00,
2013-03-03 08:02:00,33.0,22.0,-100.00,NW,320,6.0,12.0,64,0.00,,,0.00,24.000000,,2013-03-03 13:02:00,
2013-03-03 08:11:00,33.0,22.0,-100.00,NW,320,6.0,12.0,64,0.00,,,0.00,24.000000,,2013-03-03 13:11:00,
2013-03-03 08:22:00,33.0,22.0,-100.00,NW,320,6.0,12.0,64,0.00,,,0.00,24.000000,,2013-03-03 13:22:00,
2013-03-03 08:52:00,34.0,22.0,-100.00,WNW,302,5.0,11.0,62,0.00,,,0.00,91.000000,,2013-03-03 13:52:00,
2013-03-03 09:02:00,34.0,22.0,-100.00,WNW,302,5.0,11.0,62,0.00,,,0.00,91.000000,,2013-03-03 14:02:00,
2013-03-03 09:11:00,34.0,22.0,-100.00,WNW,302,5.0,11.0,62,0.00,,,0.00,91.000000,,2013-03-03 14:11:00,
2013-03-03 09:22:00,34.0,22.0,-100.00,WNW,302,5.0,11.0,62,0.00,,,0.00,91.000000,,2013-03-03 14:22:00,
2013-03-03 09:52:00,37.0,23.0,-100.00,NW,314,6.0,12.0,56,0.00,,,0.00,242.000000,,2013-03-03 14:52:00,
2013-03-03 10:02:00,37.0,23.0,-100.00,NW,314,6.0,12.0,56,0.00,,,0.00,242.000000,,2013-03-03 15:02:00,
2013-03-03 10:11:00,37.0,23.0,-100.00,NW,314,6.0,12.0,56,0.00,,,0.00,242.000000,,2013-03-03 15:11:00,
2013-03-03 10:22:00,37.0,23.0,-100.00,NW,314,6.0,12.0,56,0.00,,,0.00,242.000000,,2013-03-03 15:22:00,
2013-03-03 10:52:00,37.0,22.0,-100.00,NNW,331,6.0,12.0,54,0.00,,,0.00,333.000000,,2013-03-03 15:52:00,
2013-03-03 11:02:00,37.0,22.0,-100.00,NNW,331,6.0,12.0,54,0.00,,,0.00,333.000000,,2013-03-03 16:02:00,
2013-03-03 11:12:00,37.0,22.0,-100.00,NNW,331,6.0,12.0,54,0.00,,,0.00,333.000000,,2013-03-03 16:12:00,
2013-03-03 11:22:00,37.0,22.0,-100.00,NNW,331,6.0,12.0,54,0.00,,,0.00,333.000000,,2013-03-03 16:22:00,
2013-03-03 11:52:00,40.0,22.0,-100.00,North,353,4.0,12.0,49,0.00,,,0.00,447.000000,,2013-03-03 16:52:00,
2013-03-03 12:01:00,40.0,22.0,-100.00,North,353,4.0,12.0,49,0.00,,,0.00,447.000000,,2013-03-03 17:01:00,
2013-03-03 12:12:00,40.0,22.0,-100.00,North,353,4.0,12.0,49,0.00,,,0.00,447.000000,,2013-03-03 17:12:00,
2013-03-03 12:22:00,40.0,22.0,-100.00,North,353,4.0,12.0,49,0.00,,,0.00,447.000000,,2013-03-03 17:22:00,
2013-03-03 12:52:00,41.0,25.0,-100.00,SSW,211,7.0,17.0,53,0.00,,,0.00,437.000000,,2013-03-03 17:52:00,
2013-03-03 13:02:00,41.0,25.0,-100.00,SSW,211,7.0,17.0,53,0.00,,,0.00,437.000000,,2013-03-03 18:02:00,
2013-03-03 13:11:00,41.0,25.0,-100.00,SSW,211,7.0,17.0,53,0.00,,,0.00,437.000000,,2013-03-03 18:11:00,
2013-03-03 13:22:00,41.0,25.0,-100.00,SSW,211,7.0,17.0,53,0.00,,,0.00,437.000000,,2013-03-03 18:22:00,
2013-03-03 13:53:00,42.0,24.0,-100.00,West,267,5.0,15.0,49,0.00,,,0.00,427.000000,,2013-03-03 18:53:00,
2013-03-03 14:02:00,42.0,24.0,-100.00,West,267,5.0,15.0,49,0.00,,,0.00,427.000000,,2013-03-03 19:02:00,
2013-03-03 14:11:00,42.0,24.0,-100.00,West,267,5.0,15.0,49,0.00,,,0.00,427.000000,,2013-03-03 19:11:00,
2013-03-03 14:22:00,42.0,24.0,-100.00,West,267,5.0,15.0,49,0.00,,,0.00,427.000000,,2013-03-03 19:22:00,
2013-03-03 14:52:00,44.0,23.0,-100.00,WNW,303,6.0,12.0,43,0.00,,,0.00,515.000000,,2013-03-03 19:52:00,
2013-03-03 15:02:00,44.0,23.0,-100.00,WNW,303,6.0,12.0,43,0.00,,,0.00,515.000000,,2013-03-03 20:02:00,
2013-03-03 15:11:00,44.0,23.0,-100.00,WNW,303,6.0,12.0,43,0.00,,,0.00,515.000000,,2013-03-03 20:11:00,
2013-03-03 15:21:00,44.0,23.0,-100.00,WNW,303,6.0,12.0,43,0.00,,,0.00,515.000000,,2013-03-03 20:21:00,
2013-03-03 15:53:00,41.0,23.0,-100.00,West,279,6.0,12.0,48,0.00,,,0.00,335.000000,,2013-03-03 20:53:00,
2013-03-03 16:02:00,41.0,23.0,-100.00,West,279,6.0,12.0,48,0.00,,,0.00,335.000000,,2013-03-03 21:02:00,
2013-03-03 16:12:00,41.0,23.0,-100.00,West,279,6.0,12.0,48,0.00,,,0.00,335.000000,,2013-03-03 21:12:00,
2013-03-03 16:22:00,41.0,23.0,-100.00,West,279,6.0,12.0,48,0.00,,,0.00,335.000000,,2013-03-03 21:22:00,
2013-03-03 16:52:00,39.0,23.0,-100.00,NW,305,6.0,14.0,52,0.00,,,0.00,133.000000,,2013-03-03 21:52:00,
2013-03-03 17:02:00,39.0,23.0,-100.00,NW,305,6.0,14.0,52,0.00,,,0.00,133.000000,,2013-03-03 22:02:00,
2013-03-03 17:11:00,39.0,23.0,-100.00,NW,305,6.0,14.0,52,0.00,,,0.00,133.000000,,2013-03-03 22:11:00,
2013-03-03 17:22:00,39.0,23.0,-100.00,NW,305,6.0,14.0,52,0.00,,,0.00,133.000000,,2013-03-03 22:22:00,
2013-03-03 17:53:00,37.0,23.0,-100.00,WNW,290,5.0,13.0,57,0.00,,,0.00,41.000000,,2013-03-03 22:53:00,
2013-03-03 18:02:00,37.0,23.0,-100.00,WNW,290,5.0,13.0,57,0.00,,,0.00,41.000000,,2013-03-03 23:02:00,
2013-03-03 18:11:00,37.0,23.0,-100.00,WNW,290,5.0,13.0,57,0.00,,,0.00,41.000000,,2013-03-03 23:11:00,
2013-03-03 18:22:00,37.0,23.0,-100.00,WNW,290,5.0,13.0,57,0.00,,,0.00,41.000000,,2013-03-03 23:22:00,
2013-03-03 18:52:00,37.0,24.0,-100.00,NW,310,5.0,13.0,60,0.00,,,0.00,2.000000,,2013-03-03 23:52:00,
2013-03-03 19:02:00,37.0,24.0,-100.00,NW,310,5.0,13.0,60,0.00,,,0.00,2.000000,,2013-03-04 00:02:00,
2013-03-03 19:11:00,37.0,24.0,-100.00,NW,310,5.0,13.0,60,0.00,,,0.00,2.000000,,2013-03-04 00:11:00,
2013-03-03 19:22:00,37.0,24.0,-100.00,NW,310,5.0,13.0,60,0.00,,,0.00,2.000000,,2013-03-04 00:22:00,
2013-03-03 19:52:00,36.0,25.0,-100.00,NW,312,5.0,12.0,65,0.00,,,0.00,0.000000,,2013-03-04 00:52:00,
2013-03-03 20:02:00,36.0,25.0,-100.00,NW,312,5.0,12.0,65,0.00,,,0.00,0.000000,,2013-03-04 01:02:00,
2013-03-03 20:12:00,36.0,25.0,-100.00,NW,312,5.0,12.0,65,0.00,,,0.00,0.000000,,2013-03-04 01:12:00,
2013-03-03 20:22:00,36.0,25.0,-100.00,NW,312,5.0,12.0,65,0.00,,,0.00,0.000000,,2013-03-04 01:22:00,
2013-03-03 20:52:00,33.0,25.0,-100.00,NW,308,4.0,13.0,71,0.00,,,0.00,0.000000,,2013-03-04 01:52:00,
2013-03-03 21:01:00,33.0,25.0,-100.00,NW,308,4.0,13.0,71,0.00,,,0.00,0.000000,,2013-03-04 02:01:00,
2013-03-03 21:11:00,33.0,25.0,-100.00,NW,308,4.0,13.0,71,0.00,,,0.00,0.000000,,2013-03-04 02:11:00,
2013-03-03 21:22:00,33.0,25.0,-100.00,NW,308,4.0,13.0,71,0.00,,,0.00,0.000000,,2013-03-04 02:22:00,
2013-03-03 21:53:00,31.0,24.0,-100.00,WNW,302,5.0,13.0,76,0.00,,,0.00,0.000000,,2013-03-04 02:53:00,
2013-03-03 22:02:00,31.0,24.0,-100.00,WNW,302,5.0,13.0,76,0.00,,,0.00,0.000000,,2013-03-04 03:02:00,
2013-03-03 22:11:00,31.0,24.0,-100.00,WNW,302,5.0,13.0,76,0.00,,,0.00,0.000000,,2013-03-04 03:11:00,
2013-03-03 22:22:00,31.0,24.0,-100.00,WNW,302,5.0,13.0,76,0.00,,,0.00,0.000000,,2013-03-04 03:22:00,
2013-03-03 22:53:00,31.0,26.0,-100.00,WNW,299,5.0,12.0,80,0.00,,,0.00,0.000000,,2013-03-04 03:53:00,
2013-03-03 23:02:00,31.0,26.0,-100.00,WNW,299,5.0,12.0,80,0.00,,,0.00,0.000000,,2013-03-04 04:02:00,
2013-03-03 23:11:00,31.0,26.0,-100.00,WNW,299,5.0,12.0,80,0.00,,,0.00,0.000000,,2013-03-04 04:11:00,
2013-03-03 23:22:00,31.0,26.0,-100.00,WNW,299,5.0,12.0,80,0.00,,,0.00,0.000000,,2013-03-04 04:22:00,
2013-03-03 23:52:00,31.0,26.0,-100.00,WNW,302,5.0,12.0,81,0.00,,,0.00,0.000000,,2013-03-04 04:52:00,